KC8YVF-1 Weather Reports


time (UTC)temp
C
wind
direction
speed
KPH
gust
KPH
rain 1hr
cm
rain 24hr
cm
rain mn
cm
humidity
%
barometer
mb
20260502170510 10 338 0.0 0.0 0.00 0.00 0.00 50 1004.0
20260502164012 9 270 0.0 0.0 0.00 0.00 0.00 50 1004.1
20260502163852 9 270 0.0 0.0 0.00 0.00 0.00 50 1004.0
20260502163511 9 270 0.0 0.0 0.00 0.00 0.00 51 1004.0
20260502162510 8 270 0.0 0.0 0.00 0.00 0.00 51 1004.4
20260502162353 9 270 0.0 0.0 0.00 0.00 0.00 52 1004.4
20260502162010 9 293 0.0 0.0 0.00 0.00 0.00 52 1004.4
20260502161512 9 270 0.0 0.0 0.00 0.00 0.00 52 1004.4
20260502161011 8 293 0.0 0.0 0.00 0.00 0.00 52 1004.4
20260502160852 8 315 0.0 0.0 0.00 0.00 0.00 54 1004.4
20260502160510 8 0 0.0 0.0 0.00 0.00 0.00 54 1004.4
20260502152011 6 338 0.0 0.0 0.00 0.00 0.00 58 1004.4
20260502151510 6 293 0.0 0.0 0.00 0.00 0.00 58 1004.4
20260502151010 6 315 0.0 0.0 0.00 0.00 0.00 58 1004.4
20260502150853 6 315 0.0 0.0 0.00 0.00 0.00 59 1004.4
20260502150511 6 338 0.0 0.0 0.00 0.00 0.00 59 1004.4
20260502130510 5 338 0.0 0.0 0.00 0.00 0.00 69 1005.0
20260502123511 4 338 0.0 0.0 0.00 0.00 0.00 72 1005.0
20260502123011 4 338 0.0 0.0 0.00 0.00 0.00 73 1005.0
20260502122511 4 338 0.0 0.0 0.00 0.00 0.00 74 1005.3
20260502122352 4 338 0.0 0.0 0.00 0.00 0.00 74 1005.2
20260502122011 3 0 0.0 0.0 0.00 0.00 0.00 74 1005.0
20260502121510 3 0 0.0 0.0 0.00 0.00 0.00 75 1005.1
20260502120853 3 338 0.0 0.0 0.00 0.00 0.00 76 1005.0
20260502120511 2 338 0.0 0.0 0.00 0.00 0.00 76 1005.0
20260502115352 1 293 0.0 0.0 0.00 0.00 0.00 77 1005.0
20260502115011 1 270 0.0 0.0 0.00 0.00 0.00 77 1005.0
20260502114510 0 315 0.0 0.0 0.00 0.00 0.00 77 1005.0
20260502113854 0 293 0.0 0.0 0.00 0.00 0.00 76 1005.0
20260502113510 0 293 0.0 0.0 0.00 0.00 0.00 76 1005.0
20260502113012 0 293 0.0 0.0 0.00 0.00 0.00 75 1005.0
20260502112354 0 315 0.0 0.0 0.00 0.00 0.00 75 1004.7
20260502111510 0 315 0.0 0.0 0.00 0.00 0.00 74 1005.0
20260502111011 0 315 0.0 0.0 0.00 0.00 0.00 74 1004.9
20260502110852 0 315 0.0 0.0 0.00 0.00 0.00 74 1005.0
20260502110510 0 315 0.0 0.0 0.00 0.00 0.00 74 1005.0
20260502110011 0 315 0.0 0.0 0.00 0.00 0.00 73 1004.9
20260502105511 0 315 0.0 0.0 0.00 0.00 0.00 73 1004.7
20260502105353 0 315 0.0 0.0 0.00 0.00 0.00 73 1004.7
20260502105010 0 315 0.0 0.0 0.00 0.00 0.00 73 1004.9
20260502104511 0 315 0.0 0.0 0.00 0.00 0.00 73 1004.7
20260502104012 0 315 0.0 0.0 0.00 0.00 0.00 73 1004.7
20260502103854 0 315 0.0 0.0 0.00 0.00 0.00 73 1004.7
20260502103010 0 315 0.0 0.0 0.00 0.00 0.00 72 1004.4
20260502102511 0 315 0.0 0.0 0.00 0.00 0.00 72 1004.4
20260502102352 0 315 0.0 0.0 0.00 0.00 0.00 72 1004.4
20260502102010 0 315 0.0 0.0 0.00 0.00 0.00 72 1004.4
20260502101510 0 315 0.0 0.0 0.00 0.00 0.00 72 1004.4
20260502101011 0 315 0.0 0.0 0.00 0.00 0.00 72 1004.4
20260502100852 0 315 0.0 0.0 0.00 0.00 0.00 72 1004.4
20260502100510 0 315 0.0 0.0 0.00 0.00 0.00 72 1004.4
20260502091511 1 315 0.0 0.0 0.00 0.00 0.00 70 1004.4
20260502091011 1 315 0.0 0.0 0.00 0.00 0.00 70 1004.4
20260502090852 1 315 0.0 0.0 0.00 0.00 0.00 70 1004.4
20260502090511 1 315 0.0 0.0 0.00 0.00 0.00 70 1004.2
20260502071510 2 315 0.0 0.0 0.00 0.00 0.00 66 1003.7
20260502071011 2 315 0.0 0.0 0.00 0.00 0.00 66 1003.7
20260502070851 2 315 0.0 0.0 0.00 0.00 0.00 65 1003.7
20260502070010 2 315 0.0 0.0 0.00 0.00 0.00 65 1003.7
20260502065510 3 315 0.0 0.0 0.00 0.00 0.00 65 1003.7
20260502065351 3 315 0.0 0.0 0.00 0.00 0.00 65 1004.0
20260502065009 3 315 0.0 0.0 0.00 0.00 0.00 65 1003.7
20260502064510 3 315 0.0 0.0 0.00 0.00 0.00 65 1004.0
20260502064010 3 315 0.0 0.0 0.00 0.00 0.00 65 1004.0
20260502063851 3 315 0.0 0.0 0.00 0.00 0.00 64 1003.8
20260502063509 3 315 0.0 0.0 0.00 0.00 0.00 64 1004.0
20260502063009 3 315 0.0 0.0 0.00 0.00 0.00 64 1003.9
20260502062352 3 315 0.0 0.0 0.00 0.00 0.00 63 1004.0
20260502062009 3 315 0.0 0.0 0.00 0.00 0.00 63 1004.0
20260502061511 3 315 0.0 0.0 0.00 0.00 0.00 63 1004.0
20260502061010 3 315 0.0 0.0 0.00 0.00 0.00 63 1004.0
20260502060851 3 315 0.0 0.0 0.00 0.00 0.00 63 1004.0
20260502060509 3 315 0.0 0.0 0.00 0.00 0.00 63 1004.0
20260502060009 3 315 0.0 0.0 0.00 0.00 0.00 63 1004.0
20260502055509 3 315 0.0 0.0 0.00 0.00 0.00 63 1004.0
20260502055352 3 315 0.0 0.0 0.00 0.00 0.00 62 1004.0
20260502055009 3 315 0.0 0.0 0.00 0.00 0.00 62 1004.0
20260502054509 3 315 0.0 0.0 0.00 0.00 0.00 62 1004.0
20260502054010 3 315 0.0 0.0 0.00 0.00 0.00 61 1004.0
20260502053851 3 315 0.0 0.0 0.00 0.00 0.00 61 1004.0
20260502053510 3 315 0.0 0.0 0.00 0.00 0.00 61 1004.0
20260502053010 3 315 0.0 0.0 0.00 0.00 0.00 61 1003.9
20260502052509 3 338 0.0 0.0 0.00 0.00 0.00 61 1003.7
20260502052351 3 315 0.0 0.0 0.00 0.00 0.00 61 1003.9
20260502052008 3 315 0.0 0.0 0.00 0.00 0.00 61 1003.7
20260502050850 4 338 0.0 0.0 0.00 0.00 0.00 60 1003.7
20260502050511 4 338 0.0 0.0 0.00 0.00 0.00 60 1003.8
20260502050008 4 338 0.0 0.0 0.00 0.00 0.00 60 1003.7
20260502045510 4 338 0.0 0.0 0.00 0.00 0.00 60 1003.7
20260502045351 4 338 0.0 0.0 0.00 0.00 0.00 60 1003.7
20260502045009 4 338 0.0 0.0 0.00 0.00 0.00 60 1003.7
20260502044508 4 315 0.0 0.0 0.00 0.00 0.00 60 1003.7
20260502043851 4 315 0.0 0.0 0.00 0.00 0.00 60 1003.7
20260502042509 4 315 0.0 0.0 0.00 0.00 0.00 60 1003.7
20260502042350 4 315 0.0 0.0 0.00 0.00 0.00 60 1003.7
20260502042009 4 315 0.0 0.0 0.00 0.00 0.00 60 1003.7
20260502041509 4 315 0.0 0.0 0.00 0.00 0.00 60 1003.7
20260502041009 4 338 0.0 0.0 0.00 0.00 0.00 60 1003.7
20260502040851 4 338 0.0 0.0 0.00 0.00 0.00 60 1003.7
20260502040508 4 315 0.0 0.0 0.00 0.00 0.00 60 1003.7
20260502040009 4 338 0.0 0.0 0.00 0.00 0.00 59 1003.7
20260502035508 4 338 0.0 0.0 0.00 0.00 0.00 59 1003.7
20260502035351 4 338 0.0 0.0 0.00 0.00 0.00 59 1003.7
20260502035009 4 338 0.0 0.0 0.00 0.00 0.00 59 1003.7
20260502034508 4 338 0.0 0.0 0.00 0.00 0.00 59 1003.4
20260502034009 5 338 0.0 0.0 0.00 0.00 0.00 58 1003.7
20260502033850 5 338 0.0 0.0 0.00 0.00 0.00 58 1003.7
20260502033509 5 338 0.0 0.0 0.00 0.00 0.00 58 1003.6
20260502033008 5 315 0.0 0.0 0.00 0.00 0.00 58 1003.3
20260502032508 5 338 0.0 0.0 0.00 0.00 0.00 58 1003.3
20260502032351 5 338 0.0 0.0 0.00 0.00 0.00 58 1003.3
20260502032008 5 315 0.0 0.0 0.00 0.00 0.00 58 1003.3
20260502031509 5 315 0.0 0.0 0.00 0.00 0.00 58 1003.5
20260502031009 5 315 0.0 0.0 0.00 0.00 0.00 57 1003.4
20260502030850 5 338 0.0 0.0 0.00 0.00 0.00 57 1003.6
20260502030508 5 338 0.0 0.0 0.00 0.00 0.00 57 1003.4
20260502030009 5 338 0.0 0.0 0.00 0.00 0.00 57 1003.3
20260502025509 5 338 0.0 0.0 0.00 0.00 0.00 57 1003.3
20260502025350 5 338 0.0 0.0 0.00 0.00 0.00 57 1003.3
20260502025009 5 315 0.0 0.0 0.00 0.00 0.00 57 1003.3
20260502024009 5 338 0.0 0.0 0.00 0.00 0.00 57 1003.2
20260502023850 5 338 0.0 0.0 0.00 0.00 0.00 57 1003.2
20260502023510 5 338 0.0 0.0 0.00 0.00 0.00 57 1003.3
20260502022507 5 315 0.0 0.0 0.00 0.00 0.00 57 1003.3
20260502022350 5 338 0.0 0.0 0.00 0.00 0.00 57 1003.3
20260502021008 5 338 0.0 0.0 0.00 0.00 0.00 57 1003.1
20260502020849 5 315 0.0 0.0 0.00 0.00 0.00 57 1003.2
20260502020508 5 338 0.0 0.0 0.00 0.00 0.00 57 1003.0
20260502015509 5 315 0.0 0.0 0.00 0.00 0.00 57 1003.0
20260502015350 5 315 0.0 0.0 0.00 0.00 0.00 57 1003.0
20260502015008 5 315 0.0 0.0 0.00 0.00 0.00 57 1003.0
20260502014509 5 338 0.0 0.0 0.00 0.00 0.00 57 1003.0
20260502014009 5 338 0.0 0.0 0.00 0.00 0.00 57 1003.0
20260502013850 5 315 0.0 0.0 0.00 0.00 0.00 57 1003.0
20260502013508 5 338 0.0 0.0 0.00 0.00 0.00 57 1003.0
20260502012509 5 315 0.0 0.0 0.00 0.00 0.00 57 1002.9
20260502012350 5 315 0.0 0.0 0.00 0.00 0.00 56 1003.0
20260502010850 5 338 0.0 0.0 0.00 0.00 0.00 56 1002.7
20260502005350 6 0 0.0 0.0 0.00 0.00 0.00 55 1002.7
20260502004508 6 315 0.0 0.0 0.00 0.00 0.00 55 1002.7
20260502004008 6 315 0.0 0.0 0.00 0.00 0.00 55 1002.7
20260502003849 6 338 0.0 0.0 0.00 0.00 0.00 55 1002.3
20260502003007 6 315 0.0 0.0 0.00 0.00 0.00 55 1002.3
20260502002507 6 315 0.0 0.0 0.00 0.00 0.00 54 1002.3
20260502002350 6 338 0.0 0.0 0.00 0.00 0.00 54 1002.3
20260502002008 6 338 0.0 0.0 0.00 0.00 0.00 54 1002.3
20260502001509 6 315 0.0 0.0 0.00 0.00 0.00 54 1002.3
20260502001007 6 293 0.0 0.0 0.00 0.00 0.00 54 1002.3
20260502000850 6 315 0.0 0.0 0.00 0.00 0.00 54 1002.3
20260502000007 6 315 0.0 0.0 0.00 0.00 0.00 54 1002.3
20260501235350 6 338 0.0 0.0 0.00 0.00 0.00 54 1002.3
20260501234507 6 338 0.0 0.0 0.00 0.00 0.00 54 1002.0
20260501234006 6 315 0.0 0.0 0.00 0.00 0.00 54 1002.0
20260501233849 6 338 0.0 0.0 0.00 0.00 0.00 54 1002.0
20260501233508 6 293 0.0 0.0 0.00 0.00 0.00 54 1002.0
20260501233007 6 315 0.0 0.0 0.00 0.00 0.00 54 1002.0
20260501232507 7 338 0.0 0.0 0.00 0.00 0.00 54 1002.0
20260501232350 7 338 0.0 0.0 0.00 0.00 0.00 54 1002.0
20260501232007 7 315 0.0 0.0 0.00 0.00 0.00 54 1002.0
20260501230848 7 338 0.0 0.0 0.00 0.00 0.00 53 1002.0
20260501230007 7 338 0.0 0.0 0.00 0.00 0.00 53 1001.6
20260501225350 7 315 0.0 0.0 0.00 0.00 0.00 53 1001.6
20260501225009 7 293 0.0 0.0 0.00 0.00 0.00 53 1001.6
20260501224007 7 315 0.0 0.0 0.00 0.00 0.00 53 1001.6
20260501223848 7 270 0.0 0.0 0.00 0.00 0.00 53 1001.6
20260501223007 7 293 0.0 0.0 0.00 0.00 0.00 53 1001.6
20260501222350 7 315 0.0 0.0 0.00 0.00 0.00 53 1001.6
20260501222008 8 315 0.0 0.0 0.00 0.00 0.00 53 1001.6
20260501221507 8 315 0.0 0.0 0.00 0.00 0.00 53 1001.6
20260501221008 8 315 0.0 0.0 0.00 0.00 0.00 52 1001.3
20260501220848 8 338 0.0 0.0 0.00 0.00 0.00 53 1001.3
20260501220507 8 315 0.0 0.0 0.00 0.00 0.00 53 1001.3
20260501220007 8 293 0.0 0.0 0.00 0.00 0.00 53 1001.3
20260501215348 8 315 0.0 0.0 0.00 0.00 0.00 53 1001.3
20260501214506 8 315 0.0 0.0 0.00 0.00 0.00 53 1001.3
20260501214007 8 270 0.0 0.0 0.00 0.00 0.00 53 1001.3
20260501213848 8 338 0.0 0.0 0.00 0.00 0.00 53 1001.3
20260501213006 8 315 0.0 0.0 0.00 0.00 0.00 53 1001.3
20260501212508 8 315 0.0 0.0 0.00 0.00 0.00 53 1001.3
20260501212348 8 338 0.0 0.0 0.00 0.00 0.00 53 1001.3
20260501212006 8 338 0.0 0.0 0.00 0.00 0.00 53 1001.3
20260501211507 8 338 0.0 0.0 0.00 0.00 0.00 53 1001.2
20260501211006 8 338 0.0 0.0 0.00 0.00 0.00 53 1001.0
20260501210849 8 315 0.0 0.0 0.00 0.00 0.00 52 1001.0
20260501210506 8 338 0.0 0.0 0.00 0.00 0.00 52 1001.0
20260501210007 8 293 0.0 0.0 0.00 0.00 0.00 52 1001.0
20260501205349 9 315 0.0 0.0 0.00 0.00 0.00 53 1001.0
20260501205006 9 338 0.0 0.0 0.00 0.00 0.00 53 1001.1
20260501204006 8 315 0.0 0.0 0.00 0.00 0.00 53 1001.2
20260501203848 8 338 0.0 0.0 0.00 0.00 0.00 54 1001.3
20260501203507 8 315 0.0 0.0 0.00 0.00 0.00 55 1001.3
20260501203006 8 338 0.0 0.0 0.00 0.00 0.00 55 1001.3
20260501202348 8 315 0.0 0.0 0.00 0.00 0.00 54 1001.3
20260501202007 8 315 0.0 0.0 0.00 0.00 0.00 55 1001.3
20260501201007 8 293 0.0 0.0 0.00 0.00 0.00 55 1001.0
20260501200848 8 293 0.0 0.0 0.00 0.00 0.00 55 1001.0
20260501200507 8 293 0.0 0.0 0.00 0.00 0.00 55 1001.0
20260501195507 8 270 0.0 0.0 0.00 0.00 0.00 55 1001.0
20260501195348 8 270 0.0 0.0 0.00 0.00 0.00 55 1001.0
20260501195007 8 270 0.0 0.0 0.00 0.00 0.00 55 1001.0
20260501193848 8 338 0.0 0.0 0.00 0.00 0.00 56 1001.0
20260501193506 8 315 0.0 0.0 0.00 0.00 0.00 55 1001.0
20260501192348 9 0 0.0 0.0 0.00 0.00 0.00 55 1001.0
20260501192007 9 23 0.0 0.0 0.00 0.00 0.00 56 1001.0
20260501191007 9 23 0.0 0.0 0.00 0.00 0.00 56 1001.0
20260501190849 9 338 0.0 0.0 0.00 0.00 0.00 57 1001.0
20260501190506 8 338 0.0 0.0 0.00 0.00 0.00 58 1001.0
20260501185507 8 270 0.0 0.0 0.00 0.00 0.00 57 1001.0
20260501185348 8 293 0.0 0.0 0.00 0.00 0.00 58 1001.0
20260501185007 8 293 0.0 0.0 0.00 0.00 0.00 58 1001.0
20260501183848 8 338 0.0 0.0 0.00 0.00 0.00 59 1001.0
20260501183507 8 338 0.0 0.0 0.00 0.00 0.00 59 1001.0
20260501182508 7 315 0.0 0.0 0.00 0.00 0.00 60 1001.0
20260501182350 7 338 0.0 0.0 0.00 0.00 0.00 60 1001.0
20260501182006 7 338 0.0 0.0 0.00 0.00 0.00 60 1001.0
20260501181506 7 270 0.0 0.0 0.00 0.00 0.00 60 1001.0
20260501181009 7 68 0.0 0.0 0.00 0.00 0.00 59 1001.0
20260501180848 7 90 0.0 0.0 0.00 0.00 0.00 59 1001.0
20260501180506 7 90 0.0 0.0 0.00 0.00 0.00 59 1001.0
20260501175507 7 90 0.0 0.0 0.00 0.00 0.00 59 1001.0
20260501175348 8 90 0.0 0.0 0.00 0.00 0.00 59 1001.0
20260501175007 8 338 0.0 0.0 0.00 0.00 0.00 60 1001.0
20260501174506 8 315 0.0 0.0 0.00 0.00 0.00 60 1001.0
20260501174007 8 338 0.0 0.0 0.00 0.00 0.00 60 1001.0
20260501173850 8 0 0.0 0.0 0.00 0.00 0.00 60 1001.0
20260501173506 8 338 0.0 0.0 0.00 0.00 0.00 60 1001.0
20260501173006 8 338 0.0 0.0 0.00 0.00 0.00 59 1001.0
20260501172349 8 338 0.0 0.0 0.00 0.00 0.00 58 1001.0